Flag for Switzerland Weather past 2 weeks in Buchs, St. Gallen, Switzerland

Now
38 °F

Chilly.


Feels Like: 34 °F
Forecast: 29 / 48 °F
Wind: 5 mph from Southeast

Location: Vaduz

Current Time: Mar 1, 2015 at 12:46:58 AM

Latest Report: Feb 28, 2015 at 11:00 PM


Visibility: N/A

Pressure: 30.11 "Hg

Humidity: 77%

Dew point: 31 °F

Location of BuchsLocation

Historic Weather in Buchs — Graph

°F

Buchs temperature yesterday

Maximum temperature yesterday: 45 °F (at 3:00 PM)
Minimum temperature yesterday: 35 °F (at 7:00 AM)
Average temperature yesterday: 39 °F

Past Weeks' High & Low Weather Summary

 TemperatureHumidityPressure
High54 °F (Feb 21, 2:00 PM)100% (Feb 15, 7:00 AM)30.74 "Hg (Feb 15, 7:00 AM)
Low26 °F (Feb 14, 8:00 AM)22% (Feb 20, 9:00 PM)29.44 "Hg (Feb 21, 1:00 PM)
Average36 °F75%30.08 "Hg
* Reported Feb 13 11:00 PM — Feb 28 11:00 PM, Buchs, Weather by CustomWeather, © 2015

Note: Actual official high and low records may vary slightly from our data, if they occured in-between our weather recording intervals... More about our weather records

Advertising

Buchs weather history for previous 24 hours

 ConditionsComfort  
Time TempWeatherWind HumidityBarometerVisibility
11:00 PM
Sat, Feb 28
38 °FChilly.5 mph77%30.11 "HgN/A
10:00 PM39 °FChilly.7 mph76%30.12 "HgN/A
9:00 PM40 °FChilly.3 mph76%30.12 "HgN/A
8:00 PM40 °FQuite cool.1 mph72%30.11 "HgN/A
7:00 PM41 °FFog.3 mph71%30.11 "Hg6 mi
6:00 PM42 °FQuite cool.5 mph69%30.09 "HgN/A
5:00 PM43 °FQuite cool.3 mph63%30.10 "HgN/A
4:00 PM45 °FFog.5 mph61%30.09 "Hg3 mi
3:00 PM45 °FQuite cool.5 mph60%30.09 "HgN/A
2:00 PM44 °FQuite cool.2 mph63%30.11 "HgN/A
1:00 PM42 °FOvercast.3 mph70%30.15 "Hg3 mi
12:00 PM39 °FChilly.3 mph81%30.19 "HgN/A
11:00 AM37 °FChilly.1 mph86%30.21 "HgN/A
10:00 AM37 °FRain. Overcast.2 mph89%30.22 "Hg3 mi
9:00 AM36 °FChilly.2 mph92%30.22 "HgN/A
8:00 AM35 °FChilly.2 mph91%30.22 "HgN/A
7:00 AM35 °FOvercast.3 mph92%30.20 "Hg1 mi
6:00 AM35 °FChilly.2 mph92%30.19 "HgN/A
5:00 AM35 °FChilly.3 mph91%30.19 "HgN/A
3:00 AM36 °FChilly.2 mph92%30.19 "HgN/A
2:00 AM36 °FChilly.1 mph93%30.20 "HgN/A
1:00 AM36 °FLight rain. Low clouds.1 mph91%30.20 "Hg5 mi
12:00 AM37 °FChilly.1 mph91%30.19 "HgN/A
Weather by CustomWeather, © 2015

See weather overviewHow to use our weather pages